Tracking 28091 objects as of 30-Sep-2023
HD Live streaming from Space Station
objects crossing your sky now

THOR ABLESTAR DEB

Track THOR ABLESTAR DEB now!
10-day predictions


NORAD ID: 13511
Int'l Code: 1961-015KU
Perigee: 922.2 km
Apogee: 1,113.0 km
Inclination: 65.8 °
Period: 105.3 minutes
Semi major axis: 7388 km
RCS: 0.0083 m2 (small)
Launch date: June 29, 1961
Source: United States (US)
Launch site: AIR FORCE EASTERN TEST RANGE (AFETR)

Note: This is SATELLITE DEBRIS
Your satellite tracking list
Your tracking list is empty




NASA's NSSDC Master Catalog

Two Line Element Set (TLE):
1 13511U 61015KU  23272.07703017  .00000264  00000-0  38779-3 0  9994
2 13511  65.8402 121.2856 0129103 294.9789 229.6838 13.66973758155449
Source of the keplerian elements: AFSPC